Date String (YYYY-MM-DD hh:mm:ss) UTC,Instrument flags,Ambient pressure (hPa),Sample flow (lpm),Bypass flow (lpm),Sample temperature (°C),Ambient temperature (°C),ASC tube jacket temperature (°C),LED temperature (°C),Box temperature (°C),Sample RH (%),Span deviation,Mass concentration (μg/m³),Mass concentration (μg/m³),Mass concentration (μg/m³)
DateTimeUTC,F1_M11,P_M11,Q1_M11,Q2_M11,T1_M11,T2_M11,T3_M11,T4_M11,T5_M11,U1_M11,ZSPAN_M11,X2_M11,X0_M11,X1_M11
2022-11-22 18:00:00,,0828.9,4.99,0.00,24.4,23.3,00.0,33.1,26.3,06.7,0000.0,0003.87,0010.01,0003.26
2022-11-22 18:01:00,,0828.9,5.00,0.00,24.4,23.3,00.0,33.1,26.3,07.0,0000.0,0003.92,0010.16,0003.29
2022-11-22 18:02:00,,0828.9,5.01,0.00,24.4,23.3,00.0,33.2,26.3,06.9,0000.0,0003.91,0009.46,0003.32
2022-11-22 18:03:00,,0828.8,5.01,0.00,24.4,23.4,00.0,33.2,26.3,06.8,0000.0,0003.91,0008.61,0003.33
2022-11-22 18:04:00,,0828.9,4.99,0.00,24.4,23.3,00.0,33.2,26.3,06.7,0000.0,0003.89,0008.56,0003.35
2022-11-22 18:05:00,,0828.8,4.99,0.00,24.4,23.4,00.0,33.2,26.4,06.7,0000.0,0003.89,0008.55,0003.35
2022-11-22 18:06:00,,0829.1,5.01,0.00,24.4,23.4,00.0,33.2,26.4,07.1,0000.0,0003.91,0008.10,0003.36
2022-11-22 18:07:00,,0828.9,5.00,0.00,24.4,23.4,00.0,33.2,26.4,07.0,0000.0,0003.95,0008.21,0003.38
2022-11-22 18:08:00,,0828.9,5.00,0.00,24.4,23.4,00.0,33.2,26.4,06.9,0000.0,0004.00,0009.54,0003.39
2022-11-22 18:09:00,,0829.2,4.99,0.00,24.4,23.4,00.0,33.2,26.3,07.0,0000.0,0003.98,0010.08,0003.39
2022-11-22 18:10:00,,0829.3,5.01,0.00,24.4,23.4,00.0,33.2,26.3,07.3,0000.0,0003.97,0010.08,0003.39
2022-11-22 18:11:00,,0829.3,5.00,0.00,24.5,23.4,00.0,33.3,26.4,07.6,0000.0,0003.95,0010.00,0003.40
2022-11-22 18:12:00,,0829.3,5.00,0.00,24.5,23.4,00.0,33.3,26.4,07.0,0000.0,0003.93,0009.97,0003.39
2022-11-22 18:13:00,,0829.3,4.99,0.00,24.5,23.5,00.0,33.3,26.4,07.2,0000.0,0003.93,0010.24,0003.37
2022-11-22 18:14:00,,0828.8,5.00,0.00,24.5,23.5,00.0,33.3,26.4,06.8,0000.0,0003.92,0009.93,0003.35
2022-11-22 18:15:00,,0828.8,5.01,0.00,24.5,23.5,00.0,33.3,26.4,07.1,0000.0,0003.86,0009.81,0003.32
2022-11-22 18:16:00,,0828.7,5.01,0.00,24.5,23.5,00.0,33.3,26.4,06.9,0000.0,0003.85,0010.21,0003.31
2022-11-22 18:17:00,,0828.7,5.00,0.00,24.5,23.5,00.0,33.3,26.4,07.0,0000.0,0003.84,0010.25,0003.30
2022-11-22 18:18:00,,0828.7,5.00,0.00,24.5,23.5,00.0,33.3,26.5,06.9,0000.0,0003.81,0010.15,0003.28
2022-11-22 18:19:00,,0828.7,5.00,0.00,24.6,23.5,00.0,33.3,26.5,06.9,0000.0,0003.75,0009.04,0003.26
2022-11-22 18:20:00,,0828.7,5.00,0.00,24.6,23.6,00.0,33.4,26.5,06.9,0000.0,0003.74,0008.55,0003.25
2022-11-22 18:21:00,,0829.0,5.01,0.00,24.6,23.6,00.0,33.4,26.5,07.0,0000.0,0003.75,0009.44,0003.22
2022-11-22 18:22:00,,0829.2,5.01,0.00,24.6,23.6,00.0,33.4,26.5,07.2,0000.0,0003.75,0009.51,0003.21
2022-11-22 18:23:00,,0829.2,4.99,0.00,24.6,23.6,00.0,33.4,26.5,07.2,0000.0,0003.73,0009.41,0003.20
2022-11-22 18:24:00,,0828.8,4.99,0.00,24.6,23.6,00.0,33.4,26.6,07.2,0000.0,0003.70,0009.20,0003.19
2022-11-22 18:25:00,,0828.6,5.00,0.00,24.6,23.6,00.0,33.4,26.6,07.1,0000.0,0003.70,0009.25,0003.19
2022-11-22 18:26:00,,0828.9,5.00,0.00,24.7,23.6,00.0,33.4,26.6,07.1,0000.0,0003.72,0009.26,0003.18
2022-11-22 18:27:00,,0828.8,5.02,0.00,24.7,23.6,00.0,33.4,26.6,07.2,0000.0,0003.66,0009.49,0003.16
2022-11-22 18:28:00,,0829.0,5.00,0.00,24.7,23.6,00.0,33.5,26.6,08.9,0000.0,0003.80,0010.28,0003.29
2022-11-22 18:29:00,,0828.7,5.00,0.00,24.7,23.6,00.0,33.5,26.6,10.2,0000.0,0004.21,0011.17,0003.66
2022-11-22 18:30:00,,0829.0,4.99,0.00,24.7,23.6,00.0,33.5,26.6,10.9,0000.0,0004.68,0011.69,0004.08
2022-11-22 18:31:00,,0828.8,5.00,0.00,24.7,23.5,00.0,33.5,26.6,11.2,0000.0,0005.12,0011.80,0004.50
2022-11-22 18:32:00,,0828.5,5.01,0.00,24.7,23.5,00.0,33.5,26.6,11.4,0000.0,0005.57,0011.36,0004.94
2022-11-22 18:33:00,,0828.7,5.01,0.00,24.7,23.5,00.0,33.5,26.6,11.6,0000.0,0006.01,0011.74,0005.40
2022-11-22 18:34:00,,0828.5,5.00,0.00,24.7,23.5,00.0,33.5,26.6,11.3,0000.0,0006.51,0012.39,0005.88
2022-11-22 18:35:00,,0828.5,4.99,0.00,24.7,23.5,00.0,33.5,26.6,11.0,0002.5,0007.06,0013.17,0006.41
2022-11-22 18:36:00,,0828.5,4.99,0.00,24.7,23.5,00.0,33.5,26.6,11.1,0005.4,0007.60,0013.79,0006.91
2022-11-22 18:37:00,,0828.5,5.01,0.00,24.7,23.5,00.0,33.5,26.6,10.9,0005.2,0008.16,0014.44,0007.45
2022-11-22 18:38:00,,0828.5,5.00,0.00,24.7,23.5,00.0,33.6,26.6,10.2,0004.8,0008.77,0014.60,0008.00
2022-11-22 18:39:00,,0828.5,4.99,0.00,24.7,23.5,00.0,33.6,26.6,10.4,0004.6,0009.19,0014.34,0008.39
2022-11-22 18:40:00,,0828.5,5.01,0.00,24.7,23.5,00.0,33.6,26.6,10.2,0003.8,0009.31,0014.06,0008.53
2022-11-22 18:41:00,,0828.5,5.01,0.00,24.7,23.5,00.0,33.6,26.6,10.7,0001.9,0009.39,0013.96,0008.58
2022-11-22 18:42:00,,0828.5,5.01,0.00,24.7,23.6,00.0,33.6,26.6,11.1,0002.0,0009.41,0013.90,0008.63
2022-11-22 18:43:00,,0828.5,4.99,0.00,24.7,23.6,00.0,33.6,26.7,10.9,0002.7,0009.41,0013.98,0008.66
2022-11-22 18:44:00,,0828.4,4.99,0.00,24.7,23.6,00.0,33.6,26.6,10.4,0002.4,0009.38,0014.30,0008.62
2022-11-22 18:45:00,,0828.4,5.01,0.00,24.7,23.6,00.0,33.6,26.7,10.2,0001.6,0009.32,0014.66,0008.55
2022-11-22 18:46:00,,0828.3,5.01,0.00,24.7,23.6,00.0,33.6,26.7,09.9,0000.8,0009.23,0014.67,0008.46
2022-11-22 18:47:00,,0828.5,5.00,0.00,24.7,23.6,00.0,33.6,26.6,10.4,0000.8,0009.09,0014.36,0008.38
2022-11-22 18:48:00,,0828.5,4.99,0.00,24.8,23.7,00.0,33.6,26.6,10.3,0001.2,0008.99,0014.37,0008.26
2022-11-22 18:49:00,,0828.3,4.99,0.00,24.8,23.7,00.0,33.6,26.7,10.2,0001.1,0008.82,0014.30,0008.11
2022-11-22 18:50:00,,0828.4,5.01,0.00,24.8,23.7,00.0,33.6,26.7,10.0,0001.0,0008.64,0014.70,0007.96
2022-11-22 18:51:00,,0828.3,5.00,0.00,24.8,23.7,00.0,33.6,26.7,10.3,0001.8,0008.53,0014.65,0007.84
2022-11-22 18:52:00,,0828.3,5.00,0.00,24.8,23.7,00.0,33.6,26.7,10.2,0003.7,0008.43,0014.62,0007.73
2022-11-22 18:53:00,,0828.3,5.01,0.00,24.8,23.8,00.0,33.6,26.8,10.1,0002.6,0008.37,0014.71,0007.64
2022-11-22 18:54:00,,0828.3,5.00,0.00,24.8,23.8,00.0,33.6,26.8,10.5,0000.4,0008.34,0015.70,0007.56
2022-11-22 18:55:00,,0828.3,5.00,0.00,24.9,23.8,00.0,33.7,26.8,10.5,0002.2,0008.31,0015.44,0007.53
2022-11-22 18:56:00,,0828.3,4.99,0.00,24.9,23.8,00.0,33.7,26.8,10.5,0003.9,0008.30,0015.44,0007.49
2022-11-22 18:57:00,,0828.2,5.00,0.00,24.9,23.8,00.0,33.7,26.8,10.6,0005.2,0008.22,0015.01,0007.43
2022-11-22 18:58:00,,0828.2,5.01,0.00,24.9,23.8,00.0,33.7,26.8,10.2,0004.1,0008.17,0014.89,0007.37
2022-11-22 18:59:00,,0828.2,5.01,0.00,24.9,23.9,00.0,33.7,26.8,10.1,0003.7,0008.09,0014.78,0007.31
